sat.trackr.live / text

‹ back to catalog

AETHER-2

NORAD 58299 · 2023-174AV

PAYLOAD ACTIVE UNKNOWN

§ Identity

Operator
Country
CA
Launch date
2023-11-11
Launch site
AFWTR
Launch vehicle
Mass (kg)
RCS (m²)

External: N2YO · Heavens-Above · Gunter

§ Orbital elements

Epoch: 2026-05-25T04:16:33.282336Z

Period
93.86 min
Inclination
97.3899°
Eccentricity
0.0006089
Mean motion
15.34245532 rev/d
Perigee alt
459.0 km
Apogee alt
467.3 km
Semi-major
6,841.3 km
B*
1.7854e-4
RAAN
228.4111°
Arg perigee
220.9720°
Mean anomaly
139.1066°
Rev number
14,170

§ Raw data

AETHER-21 58299U 23174AV  26145.17816299  .00005841  00000+0  17854-3 0  99962 58299  97.3899 228.4111 0006089 220.9720 139.1066 15.34245532141707

JSON: /api/v1/satellites/58299 · /tle

For live sub-satellite position, see the globe view (requires WebGL).

§ Visibility from observer

Set your observer location to see the next 7 days of passes ≥ 10°. The values pass through the URL so the page stays shareable.

No JS? Fill the form by hand. The geolocation button needs JavaScript.